[[{"header":{"parameterUnit":"m.s-1","parameterCategory":1,"la1":30.2991,"la2":30.254,"lo1":-89.0895,"lo2":-89.0444,"dy":0.0017,"dx":0.0017,"nx":28,"ny":28,"refTime":"2025-02-07T09:00:00:Z","depth":0,"parameterNumber":2,"parameterNumberName":"U-component_of_WINDS"},"data":[0,0,0,0,0,0,0,0,0,0,0,0,0,0,0,0,0,0,0,0,0,0,0,0,0,0,0,0,0,0,0,0,0,0,0,0,0,0,0,0,0,0,0,0,0,0,0,0,0,0,0,0,0,0,0,0,0,0,-0.3168,-0.3168,0,-0.3207,-0.3207,-0.3208,-0.3232,-0.3232,-0.3232,-0.3233,-0.3275,-0.3276,-0.3277,0,0,0,0,0,0,0,0,0,0,0,0,0,-0.3116,-0.3116,-0.3168,-0.3168,-0.3169,-0.3207,-0.3207,-0.3208,-0.3232,-0.3232,-0.3232,-0.3233,-0.3275,-0.3276,-0.3277,0,0,0,0,0,0,0,0,0,0,0,0,0,-0.3145,-0.3117,-0.3168,-0.3185,-0.3187,-0.3207,-0.3208,-0.3208,-0.3232,-0.3232,-0.3232,-0.3233,-0.3274,-0.3276,-0.3277,-0.3283,0,0,-0.3282,-0.3283,0,0,0,0,0,0,0,0,-0.3143,-0.3147,-0.3182,-0.3184,-0.3186,-0.3215,-0.3205,-0.3233,-0.3232,-0.3215,-0.3233,-0.3233,-0.3255,-0.3258,-0.3265,-0.3285,-0.3287,-0.3282,-0.3283,-0.3284,-0.3284,0,0,0,0,0,0,0,-0.3141,-0.3145,-0.3183,-0.3183,-0.3185,-0.3192,-0.3196,-0.321,-0.3234,-0.3217,-0.3218,-0.3223,-0.3256,-0.3264,-0.3266,-0.3288,-0.3282,-0.3283,-0.3284,-0.3285,-0.3315,-0.3314,0,0,0,0,0,0,-0.3136,-0.3143,-0.3182,-0.3184,-0.3165,-0.3193,-0.3198,-0.3206,-0.3234,-0.3238,-0.3222,-0.3224,-0.3261,-0.3265,-0.3268,-0.3277,-0.3284,-0.3285,-0.3286,-0.3315,-0.3314,-0.3314,0,0,0,0,0,0,-0.3135,-0.3139,-0.318,-0.3164,-0.317,-0.3193,-0.3202,-0.3206,-0.3214,-0.3238,-0.3242,-0.3226,-0.3261,-0.3266,-0.3279,-0.3278,-0.3286,-0.3287,-0.3315,-0.3315,-0.3314,-0.3294,0,0,0,0,0,0,-0.3133,-0.3139,-0.3141,-0.3164,-0.3171,-0.319,-0.3202,-0.3207,-0.3216,-0.3218,-0.3242,-0.3246,-0.3262,-0.3277,-0.3281,-0.3281,-0.3288,-0.3315,-0.3315,-0.3314,-0.3295,-0.3293,-0.3291,0,0,0,0,0,-0.3131,-0.3134,-0.314,-0.3145,-0.3174,-0.319,-0.3194,-0.3211,-0.3216,-0.3218,-0.3234,-0.3246,-0.3278,-0.3278,-0.3282,-0.3283,-0.3315,-0.3315,-0.3314,-0.3295,-0.3293,-0.3291,0,0,0,0,0,0,-0.311,-0.3137,-0.3145,-0.3155,-0.317,-0.3194,-0.3198,-0.3208,-0.3223,-0.3224,-0.3245,-0.325,-0.3262,-0.3274,-0.3273,-0.329,-0.3298,-0.3298,-0.3282,-0.328,-0.3278,-0.3275,-0.329,0,0,0,0,0,-0.3106,-0.3117,-0.314,-0.3147,-0.3154,-0.3174,-0.3182,-0.3194,-0.321,-0.3217,-0.3234,-0.325,-0.3264,-0.3273,-0.3287,-0.3297,-0.3302,-0.3299,-0.3298,-0.3296,-0.3297,-0.3303,-0.3302,-0.3313,-0.3313,-0.3313,0,0,-0.3099,-0.3115,-0.3121,-0.3143,-0.3156,-0.3166,-0.3179,-0.319,-0.3199,-0.3219,-0.3232,-0.3245,-0.3265,-0.3276,-0.3282,-0.3287,-0.3295,-0.3296,-0.3295,-0.3296,-0.3302,-0.3301,-0.33,-0.3313,-0.3313,-0.3313,0,0,-0.3091,-0.3104,-0.3111,-0.3124,-0.3143,-0.3157,-0.3158,-0.3181,-0.319,-0.3204,-0.3219,-0.323,-0.3253,-0.3267,-0.3276,-0.3274,-0.3285,-0.3278,-0.327,-0.3275,-0.3274,-0.3274,-0.3273,-0.3272,-0.3278,-0.3278,-0.3278,0,-0.308,-0.3096,-0.3114,-0.3124,-0.3133,-0.3151,-0.3159,-0.317,-0.3193,-0.32,-0.3205,-0.3234,-0.3249,-0.3264,-0.3263,-0.327,-0.3273,-0.3275,-0.3273,-0.3272,-0.3272,-0.3271,-0.3271,-0.3277,-0.3277,-0.3277,-0.3277,0,-0.3082,-0.3093,-0.3096,-0.3117,-0.3127,-0.3135,-0.3155,-0.3163,-0.3174,-0.3187,-0.3201,-0.3219,-0.3237,-0.3242,-0.3253,-0.3258,-0.3261,-0.3269,-0.3277,-0.327,-0.3269,-0.3269,-0.3276,-0.3276,-0.3276,-0.3277,0,0,-0.3061,-0.3092,-0.3093,-0.3102,-0.3125,-0.3134,-0.3144,-0.3161,-0.3167,-0.3183,-0.3192,-0.3211,-0.3219,-0.323,-0.3243,-0.3248,-0.3245,-0.3256,-0.3257,-0.3253,-0.3252,-0.3245,-0.3245,-0.3253,-0.3253,-0.3253,-0.325,0,-0.3057,-0.3074,-0.309,-0.3102,-0.3113,-0.313,-0.3139,-0.3154,-0.3167,-0.3178,-0.3193,-0.3206,-0.3215,-0.3222,-0.3228,-0.3244,-0.3245,-0.3244,-0.3262,-0.3262,-0.3256,-0.3245,-0.3238,-0.3235,-0.325,-0.325,-0.325,0,-0.3054,-0.3068,-0.308,-0.3102,-0.3107,-0.3114,-0.3131,-0.3141,-0.3159,-0.3168,-0.318,-0.3194,-0.3206,-0.3213,-0.3229,-0.3229,-0.3237,-0.3246,-0.3246,-0.3248,-0.3255,-0.3246,-0.3234,-0.3233,-0.325,-0.325,-0.325,0,-0.3038,-0.306,-0.307,-0.3078,-0.3103,-0.3108,-0.3119,-0.3136,-0.3146,-0.3161,-0.3167,-0.3183,-0.3192,-0.3205,-0.3223,-0.3227,-0.3238,-0.3247,-0.3246,-0.3246,-0.3248,-0.3247,-0.3236,-0.3253,-0.3253,-0.3253,-0.3253,0,-0.3031,-0.3038,-0.3063,-0.3069,-0.3078,-0.3096,-0.3105,-0.3117,-0.3133,-0.3143,-0.3159,-0.3168,-0.3191,-0.3203,-0.3217,-0.3229,-0.3233,-0.3241,-0.3245,-0.3239,-0.3238,-0.3245,-0.3245,-0.3253,-0.3253,-0.3253,-0.3253,0,-0.3014,-0.3031,-0.3043,-0.3066,-0.3072,-0.3077,-0.3097,-0.3104,-0.3118,-0.313,-0.3134,-0.3156,-0.3171,-0.319,-0.3211,-0.322,-0.3231,-0.3236,-0.3224,-0.3226,-0.3225,-0.3225,-0.3217,-0.3218,-0.3234,-0.3234,-0.3234,0,-0.3008,-0.3014,-0.3037,-0.3044,-0.3054,-0.3066,-0.3075,-0.3094,-0.3103,-0.3124,-0.3128,-0.3144,-0.3158,-0.3181,-0.3199,-0.3216,-0.3222,-0.3218,-0.3224,-0.3219,-0.3222,-0.3221,-0.3222,-0.3217,-0.3216,-0.3216,-0.3216,0,-0.2997,-0.3005,-0.3017,-0.3032,-0.3042,-0.3055,-0.3069,-0.3074,-0.3096,-0.3106,-0.312,-0.3131,-0.3152,-0.3168,-0.3186,-0.3199,-0.3211,-0.3214,-0.3215,-0.3209,-0.3202,-0.3205,-0.322,-0.3214,-0.3214,-0.3214,-0.3214,-0.3214,-0.2985,-0.2991,-0.3008,-0.3021,-0.3033,-0.3046,-0.3053,-0.3068,-0.308,-0.3098,-0.3109,-0.3123,-0.3142,-0.3168,-0.3179,-0.3191,-0.3196,-0.3197,-0.3198,-0.3198,-0.3196,-0.32,-0.3195,-0.3195,-0.3195,-0.3195,-0.3195,0,-0.2974,-0.2986,-0.2997,-0.3016,-0.3026,-0.3036,-0.3052,-0.306,-0.3072,-0.3088,-0.3101,-0.3118,-0.3133,-0.3152,-0.3169,-0.3175,-0.3181,-0.3179,-0.3179,-0.3181,-0.3191,-0.3188,-0.3174,-0.3174,-0.3174,-0.3174,-0.3174,-0.3174,-0.2969,-0.298,-0.299,-0.3006,-0.3018,-0.3032,-0.304,-0.3052,-0.3064,-0.3082,-0.3094,-0.3107,-0.3124,-0.3142,-0.3157,-0.3162,-0.3168,-0.3163,-0.3171,-0.3179,-0.3181,-0.3183,-0.318,-0.3165,-0.3165,-0.316,-0.316,-0.316]},{"header":{"parameterUnit":"m.s-1","parameterCategory":1,"la1":30.2991,"la2":30.254,"lo1":-89.0895,"lo2":-89.0444,"dy":0.0017,"dx":0.0017,"nx":28,"ny":28,"refTime":"2025-02-07T09:00:00:Z","depth":0,"parameterNumber":3,"parameterNumberName":"V-component_of_WINDS"},"data":[0,0,0,0,0,0,0,0,0,0,0,0,0,0,0,0,0,0,0,0,0,0,0,0,0,0,0,0,0,0,0,0,0,0,0,0,0,0,0,0,0,0,0,0,0,0,0,0,0,0,0,0,0,0,0,0,0,0,2.1865,2.1866,0,2.1933,2.1933,2.1934,2.1942,2.1942,2.1941,2.194,2.2006,2.2008,2.201,0,0,0,0,0,0,0,0,0,0,0,0,0,2.174,2.1742,2.1865,2.1866,2.1867,2.1932,2.1933,2.1934,2.1942,2.1942,2.1941,2.194,2.2005,2.2008,2.2011,0,0,0,0,0,0,0,0,0,0,0,0,0,2.1799,2.1743,2.1865,2.1879,2.1881,2.1932,2.1933,2.1935,2.1942,2.1942,2.1941,2.194,2.2004,2.2008,2.2011,2.2052,0,0,2.2022,2.2023,0,0,0,0,0,0,0,0,2.1796,2.1804,2.1876,2.1878,2.188,2.1928,2.1913,2.1974,2.1943,2.1919,2.194,2.1939,2.198,2.1986,2.2001,2.2055,2.2058,2.2022,2.2024,2.2026,2.2027,0,0,0,0,0,0,0,2.1792,2.1801,2.1892,2.1877,2.188,2.188,2.1888,2.1925,2.1954,2.1921,2.1922,2.193,2.1981,2.1997,2.2002,2.2059,2.2022,2.2025,2.2027,2.2029,2.2151,2.2152,0,0,0,0,0,0,2.1786,2.1798,2.189,2.1894,2.1835,2.1884,2.1892,2.1914,2.1954,2.1959,2.1931,2.193,2.1992,2.1998,2.2004,2.2056,2.2026,2.2029,2.2031,2.215,2.2151,2.2152,0,0,0,0,0,0,2.1783,2.1794,2.1887,2.1846,2.1858,2.1887,2.1911,2.1915,2.1931,2.1961,2.1966,2.1941,2.1991,2.1999,2.2041,2.2058,2.2031,2.2034,2.2148,2.215,2.2152,2.2159,0,0,0,0,0,0,2.1779,2.1793,2.181,2.1846,2.186,2.1923,2.1912,2.1918,2.1938,2.1938,2.1973,2.1978,2.1991,2.2035,2.2044,2.2063,2.2037,2.2147,2.2149,2.2151,2.2157,2.2161,2.2163,0,0,0,0,0,2.1775,2.1808,2.1811,2.1822,2.1882,2.1924,2.1932,2.1948,2.1939,2.1956,2.1975,2.1976,2.2055,2.2039,2.2049,2.2069,2.2146,2.2149,2.2151,2.2156,2.216,2.2163,0,0,0,0,0,0,2.1772,2.1813,2.1816,2.1863,2.189,2.1925,2.1947,2.1951,2.1981,2.1979,2.1996,2.2004,2.2044,2.2061,2.2043,2.2111,2.2099,2.2104,2.2099,2.2104,2.2107,2.2102,2.2039,0,0,0,0,0,2.1777,2.1809,2.1842,2.188,2.1894,2.1918,2.1937,2.1947,2.1975,2.1986,2.2008,2.2035,2.2065,2.2085,2.2115,2.2159,2.2167,2.2177,2.2181,2.2183,2.2187,2.2212,2.2217,2.2161,2.2161,2.2161,0,0,2.1787,2.1813,2.1832,2.188,2.1903,2.1934,2.1928,2.1961,2.1985,2.1991,2.2032,2.2049,2.2079,2.2122,2.2142,2.2137,2.2204,2.2186,2.2188,2.2191,2.2215,2.222,2.2225,2.2163,2.2162,2.2162,0,0,2.1822,2.1845,2.188,2.1902,2.1936,2.1952,2.196,2.1995,2.2007,2.2048,2.2054,2.2081,2.2133,2.2155,2.2173,2.2215,2.2218,2.2224,2.2241,2.2265,2.2269,2.2273,2.2289,2.2295,2.2228,2.2228,2.2228,0,2.183,2.188,2.1896,2.193,2.1951,2.1959,2.1993,2.2014,2.2055,2.2069,2.2062,2.2129,2.2149,2.2198,2.2208,2.2222,2.2232,2.2221,2.2268,2.2272,2.2276,2.2291,2.2297,2.2229,2.2229,2.2229,2.2228,0,2.1888,2.1922,2.1945,2.1987,2.201,2.2044,2.2064,2.2085,2.2093,2.2109,2.215,2.2176,2.2211,2.2223,2.223,2.2272,2.2268,2.2264,2.2253,2.2282,2.2296,2.2302,2.223,2.2229,2.2229,2.2229,0,0,2.1924,2.1975,2.1983,2.2002,2.204,2.2066,2.2099,2.2135,2.2153,2.218,2.2209,2.2253,2.225,2.227,2.2279,2.23,2.2333,2.2294,2.2295,2.2301,2.2381,2.2384,2.2391,2.2334,2.2335,2.2336,2.2379,0,2.1965,2.2027,2.2042,2.2095,2.2126,2.2134,2.2163,2.2188,2.2204,2.2232,2.2248,2.228,2.2273,2.2285,2.2306,2.2324,2.2349,2.2321,2.236,2.2362,2.2354,2.2398,2.2402,2.2441,2.2384,2.2385,2.2386,0,2.202,2.2051,2.2107,2.2141,2.2154,2.2181,2.2215,2.2241,2.227,2.228,2.2302,2.2309,2.2344,2.233,2.2377,2.2357,2.2374,2.2385,2.2387,2.2392,2.2376,2.2405,2.2454,2.246,2.2395,2.2394,2.2394,0,2.2042,2.2097,2.2138,2.2154,2.2194,2.2212,2.2229,2.2257,2.2278,2.2306,2.232,2.2351,2.2369,2.2393,2.2408,2.2396,2.2454,2.2441,2.2463,2.2463,2.2476,2.2475,2.2528,2.2484,2.2484,2.2484,2.2484,0,2.2086,2.212,2.2148,2.2174,2.2212,2.2228,2.2265,2.2282,2.2307,2.2335,2.2342,2.2367,2.2386,2.2413,2.2425,2.2462,2.247,2.2478,2.2481,2.2479,2.2478,2.249,2.2489,2.2486,2.2486,2.2485,2.2485,0,2.2118,2.2138,2.2183,2.2218,2.2227,2.2254,2.2283,2.2307,2.2322,2.2357,2.2366,2.239,2.2423,2.244,2.2481,2.2489,2.2531,2.2532,2.2522,2.2523,2.2544,2.2543,2.2609,2.2619,2.2567,2.2568,2.2568,0,2.2146,2.2172,2.221,2.223,2.2248,2.2279,2.23,2.2317,2.2338,2.2373,2.2393,2.2426,2.2454,2.2506,2.2527,2.2558,2.256,2.2581,2.2565,2.2561,2.2561,2.256,2.2563,2.2584,2.2585,2.2585,2.2585,0,2.2193,2.2201,2.2232,2.2266,2.2291,2.2319,2.2345,2.2361,2.2382,2.2405,2.244,2.2461,2.2503,2.2537,2.2569,2.2586,2.2589,2.259,2.2597,2.2595,2.2589,2.2593,2.2531,2.2589,2.2589,2.2588,2.2588,2.2588,2.2224,2.2248,2.2278,2.2312,2.2334,2.2359,2.2384,2.2402,2.2432,2.2469,2.2476,2.2512,2.2539,2.2584,2.2601,2.2629,2.2625,2.2635,2.2637,2.264,2.2641,2.2583,2.2635,2.2635,2.2635,2.2635,2.2635,0,2.2272,2.2292,2.2323,2.2361,2.2387,2.2389,2.2418,2.244,2.2472,2.2498,2.2525,2.2565,2.2597,2.2619,2.2652,2.267,2.2672,2.2678,2.2677,2.2681,2.2643,2.2634,2.2676,2.2676,2.2676,2.2675,2.2675,2.2675,2.23,2.2342,2.2353,2.2405,2.2424,2.2461,2.2478,2.2501,2.2521,2.2565,2.2593,2.2607,2.2631,2.2666,2.2695,2.27,2.2712,2.2718,2.2724,2.2688,2.2684,2.268,2.2672,2.272,2.272,2.276,2.276,2.2761]}]]